カタログに戻る

STARLINK-4101

運用中通信VLEO
NORAD 53142·PAYLOAD·🇺🇸 United States

打ち上げ Jul 17, 2022 から Cape Canaveral Space Force Station

Loading…

次のパス (今後24時間)

TLE

最新Source: CelesTrak SupGP

元期: Sep 14, 2026, 21:36 UTC

1 53142C 22083L   26257.90048611 -.00007997  00000+0 -23630-3 0  2578
2 53142  53.1603  30.2375 0001098  76.3715 177.1990 15.34391674    10

AllMySatでSTARLINK-4101をリアルタイム追跡

Download on the App Store